Regional Weather Roundup
Issued by NWS Jackson, KY

Home | Current Version | Previous Version | Text Only | Print | Product List | Glossary On
Versions: 1 2 3 4 5 6 7 8 9 10 11 12 13 14 15 16 17 18 19 20 21 22 23 24 25 26 27 28 29 30 31 32 33 34 35 36 37 38 39 40 41 42 43 44 45 46 47 48 49 50
000
ASUS43 KJKL 291810
RWRJKL

EAST KENTUCKY HOURLY WEATHER ROUNDUP
NATIONAL WEATHER SERVICE JACKSON KY
200 PM EDT FRI JUL 29 2016

NOTE: "FAIR" INDICATES FEW OR NO CLOUDS BELOW 12,000 FEET WITH
NO SIGNIFICANT WEATHER AND/OR OBSTRUCTIONS TO VISIBILITY.

* THESE REPORTS ARE NOT UNDER NWS QUALITY CONTROL AND MAY NOT
  REPORT WEATHER SUCH AS PRECIPITATION AND FOG.

KYZ079-080-083-085-087-088-110-112-115-119-120-291900
...EASTERN KENTUCKY...

CITY           SKY/WX    TMP DP  RH WIND       PRES   REMARKS
JACKSON        PTSUNNY   82  71  69 VRB5      29.99F
6HR MIN TEMP:  69; 6HR MAX TEMP:  81; 6HR PCP:  0.07;

LONDON         MOSUNNY   84  69  60 W9        29.98F
6HR MIN TEMP:  70; 6HR MAX TEMP:  84; 6HR PCP:  0.35;

SOMERSET*      TSTM      73  72  94 W10       30.01R
MONTICELLO*    TSTM     N/A N/A N/A W18G24    30.04R
                                      6HR PCP:  0.31;

WILLIAMSBURG*  PTCLDY    84  73  70 SW8       29.98F HX  91
MIDDLESBORO*   MOSUNNY   83  71  67 S9        29.99F
6HR MIN TEMP:  67; 6HR MAX TEMP:  84; 6HR PCP:  0.01;

HARLAN APT*    MOCLDY    82  68  61 CALM      30.01F
PIKE CO APT*   PTSUNNY   80  73  78 SW5       30.00F
BIG SANDY APT* LGT RAIN  79  72  77 W3        29.99S
6HR MIN TEMP:  70; 6HR MAX TEMP:  82;

MOREHEAD APT*  LGT RAIN  81  72  74 W3        29.99F
ASHLAND*       CLOUDY    81  73  78 CALM      29.94F
$$

KYZ035-036-041-042-044-050-067-078-099-291900
...CENTRAL KENTUCKY...

CITY           SKY/WX    TMP DP  RH WIND       PRES   REMARKS
MT STERLING*   MOSUNNY   82  73  74 W6        29.98F
FLEMING/MASON* CLOUDY    84  73  67 SW6       29.97F HX  90
DANVILLE*      CLOUDY    81  73  78 SW8       29.98F
LEXINGTON      MOSUNNY   86  70  58 CALM      29.95F HX  90
6HR MIN TEMP:  73; 6HR MAX TEMP:  86;

FRANKFORT      MOSUNNY   86  70  58 MISG      29.94F HX  90
6HR MIN TEMP:  73; 6HR MAX TEMP:  86;

LOUISVILLE     PTSUNNY   87  71  58 VRB6      29.92F HX  93
6HR MIN TEMP:  74; 6HR MAX TEMP:  87;

LEBANON*         N/A     82  73  74 S10       29.98S
GLASGOW*       CLOUDY    77  73  90 S3        29.98F
BOWLING GREEN  MOSUNNY   78  72  81 S5        29.97F
6HR MIN TEMP:  73; 6HR MAX TEMP:  79; 6HR PCP:  1.37;

$$

KYZ091>093-OHZ055-061-077-WVZ005-015-034-035-042-291900
...SOUTHERN OHIO/WEST VIRGINIA...

CITY           SKY/WX    TMP DP  RH WIND       PRES   REMARKS
COVINGTON      PTSUNNY   84  70  62 W7        29.94F
COLUMBUS       MOSUNNY   81  68  64 CALM      29.93F
DAYTON         PTSUNNY   86  67  52 SW7       29.94F
WILMINGTON     MOSUNNY   81  72  74 S9        29.94F
HUNTINGTON     PTSUNNY   80  72  76 S5        29.96F
CHARLESTON       N/A     83  69  62 CALM      29.97F
PINEVILLE*       N/A     82  66  58 MISG      30.06F
BECKLEY        PTSUNNY   77  64  64 NW8       30.05F
BLUEFIELD      PTSUNNY   74  65  73 W9        30.08F
LOGAN CO APT*  MOCLDY    79  72  78 NW5G12    30.00F
$$

VAZ002-007-008-TNZ017-027-036-066-071-291900
...SOUTHWEST VIRGINIA/EAST TENNESSEE...

CITY           SKY/WX    TMP DP  RH WIND       PRES   REMARKS
WISE*          CLOUDY    77  63  61 SW10      30.08F
JONESVILLE*    MOCLDY    81  72  74 W3        30.03F
ABINGDON*      PTSUNNY   81  69  67 W8        30.06F
BRISTOL        PTSUNNY   83  68  60 VRB3      30.02F
MORRISTOWN*    PTCLDY    84  70  61 W10       30.00F
SEVIERVILLE*     N/A     84  66  54 S5        29.99F
KNOXVILLE      MOSUNNY   87  69  54 SW8G17    29.99F HX  91
OAK RIDGE      PTSUNNY   89  70  53 VRB3      30.00F HX  94
CROSSVILLE     MOSUNNY   81  70  69 W9        30.05F
NASHVILLE      CLOUDY    87  73  62 SW7       29.97F HX  94
$$

...KEY TO REMARKS...
VSB - VISIBILITY IN MILES
WCI - WIND CHILL INDEX
HX  - HEAT INDEX

$$



USA.gov is the U.S. government's official web portal to all federal, state and local government web resources and services.